Вернуться в каталог

STARLINK-3777

АктивенСвязьVLEO
NORAD 52294·PAYLOAD·🇺🇸 United States

Запущен Apr 21, 2022 с Cape Canaveral Space Force Station

Loading…

Ближайшие Пролёты (ближайшие 24 часа)

TLE

СвежийSource: CelesTrak SupGP

Эпоха: Sep 14, 2026, 22:07 UTC

1 52294C 22041AK  26257.92201389 -.00003740  00000+0 -11350-3 0  2572
2 52294  53.1577 317.8921 0001244  87.2591 184.6364 15.33544788    17

Отслеживайте STARLINK-3777 в реальном времени с AllMySat

Download on the App Store